Time,TemperatureF,DewpointF,PressureIn,WindDirection,WindDirectionDegrees,WindSpeedMPH,WindSpeedGustMPH,Humidity,HourlyPrecipIn,Conditions,Clouds,dailyrainin,SoftwareType,DateUTC
2013-07-22 00:01:00,61.5,54.0,30.10,NNW,337,1.0,2.0,76,0.00,,,0.00,Rainwise IP-100,2013-07-22 04:01:00,
2013-07-22 00:06:00,61.2,54.0,30.08,NNW,337,0.0,2.0,77,0.00,,,0.00,Rainwise IP-100,2013-07-22 04:06:00,
2013-07-22 00:11:00,60.9,54.0,30.06,NNW,337,0.0,0.0,77,0.00,,,0.00,Rainwise IP-100,2013-07-22 04:11:00,
2013-07-22 00:16:00,60.8,53.0,30.10,NNW,337,0.0,1.0,78,0.00,,,0.00,Rainwise IP-100,2013-07-22 04:16:00,
2013-07-22 00:21:00,60.8,54.0,30.05,ESE,112,0.0,2.0,79,0.00,,,0.00,Rainwise IP-100,2013-07-22 04:21:00,
2013-07-22 00:26:00,61.0,54.0,30.04,East,90,1.0,4.0,79,0.00,,,0.00,Rainwise IP-100,2013-07-22 04:26:00,
2013-07-22 00:31:00,61.1,54.0,30.10,East,90,0.0,1.0,80,0.00,,,0.00,Rainwise IP-100,2013-07-22 04:31:00,
2013-07-22 00:36:00,61.1,54.0,30.09,SE,135,3.0,3.0,80,0.00,,,0.00,Rainwise IP-100,2013-07-22 04:36:00,
2013-07-22 00:41:00,61.2,54.0,30.08,SSE,157,0.0,4.0,79,0.00,,,0.00,Rainwise IP-100,2013-07-22 04:41:00,
2013-07-22 00:46:00,61.0,54.0,30.09,SSE,157,0.0,2.0,79,0.00,,,0.00,Rainwise IP-100,2013-07-22 04:46:00,
2013-07-22 00:51:00,60.8,54.0,30.08,ESE,112,2.0,2.0,80,0.00,,,0.00,Rainwise IP-100,2013-07-22 04:51:00,
2013-07-22 00:56:00,60.8,54.0,30.07,ESE,112,0.0,2.0,80,0.00,,,0.00,Rainwise IP-100,2013-07-22 04:56:00,
2013-07-22 01:01:00,60.8,54.0,30.08,SSW,202,2.0,2.0,80,0.00,,,0.00,Rainwise IP-100,2013-07-22 05:01:00,
2013-07-22 01:06:00,60.6,54.0,30.07,SSW,202,2.0,2.0,80,0.00,,,0.00,Rainwise IP-100,2013-07-22 05:06:00,
2013-07-22 01:11:00,60.2,54.0,30.10,South,180,2.0,3.0,81,0.00,,,0.00,Rainwise IP-100,2013-07-22 05:11:00,
2013-07-22 01:16:00,60.0,54.0,30.10,South,180,2.0,3.0,82,0.00,,,0.00,Rainwise IP-100,2013-07-22 05:16:00,
2013-07-22 01:21:00,59.8,54.0,30.09,South,180,1.0,3.0,82,0.00,,,0.00,Rainwise IP-100,2013-07-22 05:21:00,
2013-07-22 01:26:00,59.6,54.0,30.08,South,180,0.0,2.0,83,0.00,,,0.00,Rainwise IP-100,2013-07-22 05:26:00,
2013-07-22 01:31:00,59.4,54.0,30.06,South,180,2.0,0.0,83,0.00,,,0.00,Rainwise IP-100,2013-07-22 05:31:00,
2013-07-22 01:36:00,59.2,54.0,30.09,South,180,1.0,3.0,83,0.00,,,0.00,Rainwise IP-100,2013-07-22 05:36:00,
2013-07-22 01:41:00,59.1,54.0,30.08,South,180,2.0,2.0,84,0.00,,,0.00,Rainwise IP-100,2013-07-22 05:41:00,
2013-07-22 01:46:00,59.0,54.0,30.08,South,180,1.0,2.0,83,0.00,,,0.00,Rainwise IP-100,2013-07-22 05:46:00,
2013-07-22 01:51:00,59.0,54.0,30.06,South,180,1.0,1.0,83,0.00,,,0.00,Rainwise IP-100,2013-07-22 05:51:00,
2013-07-22 01:56:00,59.0,54.0,30.06,South,180,0.0,1.0,84,0.00,,,0.00,Rainwise IP-100,2013-07-22 05:56:00,
2013-07-22 02:01:00,58.9,54.0,30.08,South,180,0.0,0.0,84,0.00,,,0.00,Rainwise IP-100,2013-07-22 06:01:00,
2013-07-22 02:06:00,58.7,54.0,30.05,South,180,0.0,0.0,84,0.00,,,0.00,Rainwise IP-100,2013-07-22 06:06:00,
2013-07-22 02:11:00,58.6,54.0,30.04,South,180,1.0,1.0,85,0.00,,,0.00,Rainwise IP-100,2013-07-22 06:11:00,
2013-07-22 02:16:00,58.6,54.0,30.03,South,180,2.0,2.0,85,0.00,,,0.00,Rainwise IP-100,2013-07-22 06:16:00,
2013-07-22 02:21:00,58.6,54.0,30.09,South,180,0.0,2.0,86,0.00,,,0.00,Rainwise IP-100,2013-07-22 06:21:00,
2013-07-22 02:26:00,58.4,54.0,30.06,South,180,0.0,0.0,86,0.00,,,0.00,Rainwise IP-100,2013-07-22 06:26:00,
2013-07-22 02:31:00,58.3,54.0,30.08,WSW,247,0.0,0.0,86,0.00,,,0.00,Rainwise IP-100,2013-07-22 06:31:00,
2013-07-22 02:36:00,58.1,54.0,30.08,WSW,247,0.0,0.0,86,0.00,,,0.00,Rainwise IP-100,2013-07-22 06:36:00,
2013-07-22 02:41:00,58.0,54.0,30.08,WSW,247,0.0,1.0,87,0.00,,,0.00,Rainwise IP-100,2013-07-22 06:41:00,
2013-07-22 02:46:00,57.9,54.0,30.09,WSW,247,0.0,0.0,87,0.00,,,0.00,Rainwise IP-100,2013-07-22 06:46:00,
2013-07-22 02:51:00,57.8,54.0,30.06,WSW,247,0.0,0.0,87,0.00,,,0.00,Rainwise IP-100,2013-07-22 06:51:00,
2013-07-22 02:56:00,57.7,54.0,30.08,WSW,247,0.0,0.0,87,0.00,,,0.00,Rainwise IP-100,2013-07-22 06:56:00,
2013-07-22 03:01:00,57.6,54.0,30.04,WSW,247,0.0,0.0,88,0.00,,,0.00,Rainwise IP-100,2013-07-22 07:01:00,
2013-07-22 03:06:00,57.6,54.0,30.06,North,0,2.0,0.0,88,0.00,,,0.00,Rainwise IP-100,2013-07-22 07:06:00,
2013-07-22 03:11:00,57.7,54.0,30.06,NNW,337,0.0,3.0,89,0.00,,,0.00,Rainwise IP-100,2013-07-22 07:11:00,
2013-07-22 03:16:00,57.7,54.0,30.07,NNW,337,0.0,2.0,90,0.00,,,0.00,Rainwise IP-100,2013-07-22 07:16:00,
2013-07-22 03:21:00,57.8,54.0,30.06,NNW,337,1.0,2.0,90,0.00,,,0.00,Rainwise IP-100,2013-07-22 07:21:00,
2013-07-22 03:26:00,57.7,54.0,30.07,NNW,337,0.0,1.0,90,0.00,,,0.00,Rainwise IP-100,2013-07-22 07:26:00,
2013-07-22 03:31:00,57.5,54.0,30.05,NNW,337,0.0,1.0,90,0.00,,,0.00,Rainwise IP-100,2013-07-22 07:31:00,
2013-07-22 03:36:00,57.3,54.0,30.10,NNW,337,2.0,2.0,91,0.00,,,0.00,Rainwise IP-100,2013-07-22 07:36:00,
2013-07-22 03:41:00,57.2,54.0,30.08,North,0,2.0,3.0,91,0.00,,,0.00,Rainwise IP-100,2013-07-22 07:41:00,
2013-07-22 03:46:00,57.1,54.0,30.06,NNW,337,2.0,3.0,92,0.00,,,0.00,Rainwise IP-100,2013-07-22 07:46:00,
2013-07-22 03:51:00,57.0,54.0,30.08,NNW,337,2.0,2.0,92,0.00,,,0.00,Rainwise IP-100,2013-07-22 07:51:00,
2013-07-22 03:56:00,57.1,54.0,30.08,NNW,337,0.0,2.0,92,0.00,,,0.00,Rainwise IP-100,2013-07-22 07:56:00,
2013-07-22 04:01:00,57.2,54.0,30.07,NNW,337,0.0,1.0,92,0.00,,,0.00,Rainwise IP-100,2013-07-22 08:01:00,
2013-07-22 04:06:00,57.2,55.0,30.06,NNW,337,0.0,1.0,93,0.00,,,0.00,Rainwise IP-100,2013-07-22 08:06:00,
2013-07-22 04:11:00,57.1,55.0,30.08,NNW,337,0.0,0.0,93,0.00,,,0.00,Rainwise IP-100,2013-07-22 08:11:00,
2013-07-22 04:16:00,57.0,55.0,30.09,NNW,337,0.0,0.0,93,0.00,,,0.00,Rainwise IP-100,2013-07-22 08:16:00,
2013-07-22 04:21:00,57.0,55.0,30.10,WNW,292,0.0,0.0,93,0.00,,,0.00,Rainwise IP-100,2013-07-22 08:21:00,
2013-07-22 04:26:00,56.9,55.0,30.09,WNW,292,0.0,0.0,93,0.00,,,0.00,Rainwise IP-100,2013-07-22 08:26:00,
2013-07-22 04:31:00,56.8,54.0,30.10,WNW,292,0.0,0.0,94,0.00,,,0.00,Rainwise IP-100,2013-07-22 08:31:00,
2013-07-22 04:36:00,56.8,54.0,30.08,WNW,292,0.0,1.0,94,0.00,,,0.00,Rainwise IP-100,2013-07-22 08:36:00,
2013-07-22 04:41:00,56.7,54.0,30.09,WNW,292,0.0,1.0,94,0.00,,,0.00,Rainwise IP-100,2013-07-22 08:41:00,
2013-07-22 04:46:00,56.7,54.0,30.07,SW,225,0.0,1.0,94,0.00,,,0.00,Rainwise IP-100,2013-07-22 08:46:00,
2013-07-22 04:51:00,56.7,54.0,30.06,SW,225,0.0,1.0,94,0.00,,,0.00,Rainwise IP-100,2013-07-22 08:51:00,
2013-07-22 04:56:00,56.7,54.0,30.07,SW,225,1.0,2.0,94,0.00,,,0.00,Rainwise IP-100,2013-07-22 08:56:00,
2013-07-22 05:01:00,56.8,54.0,30.06,SW,225,0.0,2.0,94,0.00,,,0.00,Rainwise IP-100,2013-07-22 09:01:00,
2013-07-22 05:06:00,56.9,55.0,30.07,SW,225,0.0,1.0,94,0.00,,,0.00,Rainwise IP-100,2013-07-22 09:06:00,
2013-07-22 05:11:00,57.1,55.0,30.06,SW,225,1.0,1.0,94,0.00,,,0.00,Rainwise IP-100,2013-07-22 09:11:00,
2013-07-22 05:16:00,57.2,55.0,30.07,SW,225,2.0,2.0,94,0.00,,,0.00,Rainwise IP-100,2013-07-22 09:16:00,
2013-07-22 05:21:00,57.3,55.0,30.06,SW,225,2.0,2.0,94,0.00,,,0.00,Rainwise IP-100,2013-07-22 09:21:00,
2013-07-22 05:26:00,57.6,56.0,30.11,SSW,202,3.0,3.0,94,0.00,,,0.00,Rainwise IP-100,2013-07-22 09:26:00,
2013-07-22 05:30:00,57.9,56.0,30.04,South,180,1.0,3.0,93,0.00,,,0.00,Rainwise IP-100,2013-07-22 09:30:00,
2013-07-22 05:35:00,58.2,56.0,30.06,South,180,0.0,1.0,93,0.00,,,0.00,Rainwise IP-100,2013-07-22 09:35:00,
2013-07-22 05:40:00,58.3,56.0,30.06,South,180,0.0,0.0,93,0.00,,,0.00,Rainwise IP-100,2013-07-22 09:40:00,
2013-07-22 05:45:00,58.1,56.0,30.09,NW,315,1.0,2.0,93,0.00,,,0.00,Rainwise IP-100,2013-07-22 09:45:00,
2013-07-22 05:50:00,58.1,56.0,30.06,NW,315,0.0,2.0,93,0.00,,,0.00,Rainwise IP-100,2013-07-22 09:50:00,
2013-07-22 05:55:00,58.1,56.0,30.07,NNW,337,2.0,2.0,93,0.00,,,0.00,Rainwise IP-100,2013-07-22 09:55:00,
2013-07-22 06:00:00,58.3,56.0,30.09,NNW,337,2.0,3.0,93,0.00,,,0.00,Rainwise IP-100,2013-07-22 10:00:00,
2013-07-22 06:05:00,58.5,57.0,30.07,NNW,337,1.0,2.0,93,0.00,,,0.00,Rainwise IP-100,2013-07-22 10:05:00,
2013-07-22 06:10:00,58.8,57.0,30.07,NNW,337,0.0,1.0,93,0.00,,,0.00,Rainwise IP-100,2013-07-22 10:10:00,
2013-07-22 06:15:00,59.1,56.0,30.11,NNW,337,1.0,3.0,92,0.00,,,0.00,Rainwise IP-100,2013-07-22 10:15:00,
2013-07-22 06:20:00,59.2,56.0,30.11,NNW,337,4.0,4.0,92,0.00,,,0.00,Rainwise IP-100,2013-07-22 10:20:00,
2013-07-22 06:25:00,59.5,56.0,30.11,NNW,337,3.0,3.0,91,0.00,,,0.00,Rainwise IP-100,2013-07-22 10:25:00,
2013-07-22 06:30:00,59.6,56.0,30.10,NNW,337,3.0,4.0,91,0.00,,,0.00,Rainwise IP-100,2013-07-22 10:30:00,
2013-07-22 06:35:00,59.6,56.0,30.09,NNW,337,2.0,3.0,91,0.00,,,0.00,Rainwise IP-100,2013-07-22 10:35:00,
2013-07-22 06:40:00,59.8,56.0,30.10,NNE,22,0.0,2.0,91,0.00,,,0.00,Rainwise IP-100,2013-07-22 10:40:00,
2013-07-22 06:45:00,60.3,57.0,30.09,NW,315,3.0,4.0,91,0.00,,,0.00,Rainwise IP-100,2013-07-22 10:45:00,
2013-07-22 06:50:00,60.2,57.0,30.10,NNW,337,4.0,4.0,91,0.00,,,0.00,Rainwise IP-100,2013-07-22 10:50:00,
2013-07-22 06:55:00,59.9,57.0,30.10,NNW,337,0.0,4.0,91,0.00,,,0.00,Rainwise IP-100,2013-07-22 10:55:00,
2013-07-22 07:00:00,60.5,57.0,30.10,NNW,337,2.0,3.0,91,0.00,,,0.00,Rainwise IP-100,2013-07-22 11:00:00,
2013-07-22 07:05:00,61.1,58.0,30.09,NNW,337,3.0,3.0,90,0.00,,,0.00,Rainwise IP-100,2013-07-22 11:05:00,
2013-07-22 07:10:00,61.3,57.0,30.08,WNW,292,0.0,4.0,89,0.00,,,0.00,Rainwise IP-100,2013-07-22 11:10:00,
2013-07-22 07:15:00,62.1,58.0,30.09,NNW,337,1.0,1.0,88,0.00,,,0.00,Rainwise IP-100,2013-07-22 11:15:00,
2013-07-22 07:20:00,63.2,59.0,30.06,NNE,22,2.0,3.0,87,0.00,,,0.00,Rainwise IP-100,2013-07-22 11:20:00,
2013-07-22 07:25:00,63.8,59.0,30.10,ENE,67,3.0,3.0,84,0.00,,,0.00,Rainwise IP-100,2013-07-22 11:25:00,
2013-07-22 07:30:00,63.3,57.0,30.10,NNW,337,0.0,4.0,83,0.00,,,0.00,Rainwise IP-100,2013-07-22 11:30:00,
2013-07-22 07:35:00,62.8,57.0,30.11,NNW,337,2.0,4.0,83,0.00,,,0.00,Rainwise IP-100,2013-07-22 11:35:00,
2013-07-22 07:40:00,62.8,57.0,30.11,NNW,337,1.0,3.0,84,0.00,,,0.00,Rainwise IP-100,2013-07-22 11:40:00,
2013-07-22 07:45:00,63.0,58.0,30.11,NE,45,2.0,3.0,84,0.00,,,0.00,Rainwise IP-100,2013-07-22 11:45:00,
2013-07-22 07:50:00,63.6,58.0,30.11,NE,45,1.0,2.0,83,0.00,,,0.00,Rainwise IP-100,2013-07-22 11:50:00,
2013-07-22 07:55:00,64.4,59.0,30.08,NE,45,2.0,2.0,82,0.00,,,0.00,Rainwise IP-100,2013-07-22 11:55:00,
2013-07-22 08:00:00,65.1,59.0,30.09,NE,45,1.0,2.0,80,0.00,,,0.00,Rainwise IP-100,2013-07-22 12:00:00,
2013-07-22 08:05:00,65.8,58.0,30.10,NNE,22,3.0,3.0,78,0.00,,,0.00,Rainwise IP-100,2013-07-22 12:05:00,
2013-07-22 08:10:00,66.4,59.0,30.10,NNE,22,3.0,3.0,77,0.00,,,0.00,Rainwise IP-100,2013-07-22 12:10:00,
2013-07-22 08:15:00,66.5,59.0,30.12,NNE,22,2.0,4.0,75,0.00,,,0.00,Rainwise IP-100,2013-07-22 12:15:00,
2013-07-22 08:20:00,66.3,58.0,30.09,NE,45,2.0,4.0,75,0.00,,,0.00,Rainwise IP-100,2013-07-22 12:20:00,
2013-07-22 08:25:00,65.8,57.0,30.11,NE,45,2.0,3.0,76,0.00,,,0.00,Rainwise IP-100,2013-07-22 12:25:00,
2013-07-22 08:30:00,65.6,57.0,30.11,NE,45,2.0,3.0,76,0.00,,,0.00,Rainwise IP-100,2013-07-22 12:30:00,
2013-07-22 08:35:00,65.5,57.0,30.08,NNE,22,2.0,2.0,76,0.00,,,0.00,Rainwise IP-100,2013-07-22 12:35:00,
2013-07-22 08:40:00,66.2,58.0,30.08,NE,45,4.0,4.0,76,0.00,,,0.00,Rainwise IP-100,2013-07-22 12:40:00,
2013-07-22 08:45:00,66.9,59.0,30.10,NNE,22,4.0,4.0,75,0.00,,,0.00,Rainwise IP-100,2013-07-22 12:45:00,
2013-07-22 08:50:00,66.9,59.0,30.09,East,90,3.0,5.0,74,0.00,,,0.00,Rainwise IP-100,2013-07-22 12:50:00,
2013-07-22 08:55:00,66.7,58.0,30.09,ESE,112,3.0,4.0,74,0.00,,,0.00,Rainwise IP-100,2013-07-22 12:55:00,
2013-07-22 09:00:00,67.2,59.0,30.08,South,180,3.0,4.0,74,0.00,,,0.00,Rainwise IP-100,2013-07-22 13:00:00,
2013-07-22 09:05:00,67.3,59.0,30.09,SSW,202,4.0,5.0,74,0.00,,,0.00,Rainwise IP-100,2013-07-22 13:05:00,
2013-07-22 09:10:00,66.6,59.0,30.07,SSE,157,2.0,4.0,75,0.00,,,0.00,Rainwise IP-100,2013-07-22 13:10:00,
2013-07-22 09:15:00,66.2,58.0,30.08,SSE,157,1.0,4.0,75,0.00,,,0.00,Rainwise IP-100,2013-07-22 13:15:00,
2013-07-22 09:20:00,66.5,59.0,30.10,ESE,112,6.0,6.0,75,0.00,,,0.00,Rainwise IP-100,2013-07-22 13:20:00,
2013-07-22 09:25:00,66.8,57.0,30.07,SSE,157,1.0,6.0,73,0.00,,,0.00,Rainwise IP-100,2013-07-22 13:25:00,
2013-07-22 09:30:00,66.9,57.0,30.11,SE,135,5.0,5.0,72,0.00,,,0.00,Rainwise IP-100,2013-07-22 13:30:00,
2013-07-22 09:35:00,66.6,57.0,30.11,ESE,112,4.0,6.0,72,0.00,,,0.00,Rainwise IP-100,2013-07-22 13:35:00,
2013-07-22 09:40:00,66.6,57.0,30.11,SE,135,6.0,6.0,72,0.00,,,0.00,Rainwise IP-100,2013-07-22 13:40:00,
2013-07-22 09:45:00,67.2,57.0,30.10,South,180,6.0,8.0,72,0.00,,,0.00,Rainwise IP-100,2013-07-22 13:45:00,
2013-07-22 09:50:00,67.2,57.0,30.09,SSE,157,6.0,7.0,72,0.00,,,0.00,Rainwise IP-100,2013-07-22 13:50:00,
2013-07-22 09:55:00,67.5,57.0,30.10,SSE,157,6.0,6.0,71,0.00,,,0.00,Rainwise IP-100,2013-07-22 13:55:00,
2013-07-22 10:00:00,68.5,58.0,30.10,SE,135,7.0,7.0,70,0.00,,,0.00,Rainwise IP-100,2013-07-22 14:00:00,
2013-07-22 10:05:00,68.6,57.0,30.10,SSE,157,6.0,8.0,69,0.00,,,0.00,Rainwise IP-100,2013-07-22 14:05:00,
2013-07-22 10:10:00,68.3,57.0,30.10,ESE,112,5.0,9.0,69,0.00,,,0.00,Rainwise IP-100,2013-07-22 14:10:00,
2013-07-22 10:15:00,68.1,57.0,30.10,SE,135,9.0,9.0,69,0.00,,,0.00,Rainwise IP-100,2013-07-22 14:15:00,
2013-07-22 10:20:00,67.9,57.0,30.08,SSE,157,6.0,0.0,70,0.00,,,0.00,Rainwise IP-100,2013-07-22 14:20:00,
2013-07-22 10:25:00,68.0,57.0,30.08,SSE,157,5.0,9.0,70,0.00,,,0.00,Rainwise IP-100,2013-07-22 14:25:00,
2013-07-22 10:30:00,68.2,57.0,30.11,ESE,112,6.0,6.0,70,0.00,,,0.00,Rainwise IP-100,2013-07-22 14:30:00,
2013-07-22 10:35:00,68.3,57.0,30.09,SSE,157,9.0,9.0,69,0.00,,,0.00,Rainwise IP-100,2013-07-22 14:35:00,
2013-07-22 10:40:00,68.5,57.0,30.09,SE,135,5.0,5.0,69,0.00,,,0.00,Rainwise IP-100,2013-07-22 14:40:00,
2013-07-22 10:45:00,68.7,57.0,30.08,SSW,202,0.0,0.0,69,0.00,,,0.00,Rainwise IP-100,2013-07-22 14:45:00,
2013-07-22 10:50:00,68.3,57.0,30.10,ESE,112,6.0,6.0,69,0.00,,,0.00,Rainwise IP-100,2013-07-22 14:50:00,
2013-07-22 10:55:00,68.0,57.0,30.09,SE,135,6.0,0.0,70,0.00,,,0.00,Rainwise IP-100,2013-07-22 14:55:00,
2013-07-22 11:00:00,68.0,57.0,30.10,SSE,157,8.0,8.0,70,0.00,,,0.00,Rainwise IP-100,2013-07-22 15:00:00,
2013-07-22 11:05:00,68.0,57.0,30.08,SSE,157,8.0,8.0,70,0.00,,,0.00,Rainwise IP-100,2013-07-22 15:05:00,
2013-07-22 11:10:00,67.9,57.0,30.11,SSE,157,4.0,4.0,70,0.00,,,0.00,Rainwise IP-100,2013-07-22 15:10:00,
2013-07-22 11:15:00,67.9,57.0,30.10,SE,135,7.0,7.0,70,0.00,,,0.00,Rainwise IP-100,2013-07-22 15:15:00,
2013-07-22 11:20:00,68.2,57.0,30.11,SSE,157,7.0,0.0,70,0.00,,,0.00,Rainwise IP-100,2013-07-22 15:20:00,
2013-07-22 11:25:00,68.8,58.0,30.10,SSE,157,4.0,0.0,70,0.00,,,0.00,Rainwise IP-100,2013-07-22 15:25:00,
2013-07-22 11:30:00,69.4,59.0,30.07,ESE,112,6.0,6.0,69,0.00,,,0.00,Rainwise IP-100,2013-07-22 15:30:00,
2013-07-22 11:35:00,69.5,59.0,30.09,SSE,157,4.0,4.0,69,0.00,,,0.00,Rainwise IP-100,2013-07-22 15:35:00,
2013-07-22 11:40:00,69.5,59.0,30.10,SSE,157,0.0,0.0,69,0.00,,,0.00,Rainwise IP-100,2013-07-22 15:40:00,
2013-07-22 11:45:00,69.6,59.0,30.09,SE,135,9.0,9.0,69,0.00,,,0.00,Rainwise IP-100,2013-07-22 15:45:00,
2013-07-22 11:50:00,69.4,58.0,30.11,South,180,0.0,4.0,68,0.00,,,0.00,Rainwise IP-100,2013-07-22 15:50:00,
2013-07-22 11:55:00,69.0,58.0,30.09,SE,135,0.0,4.0,69,0.00,,,0.00,Rainwise IP-100,2013-07-22 15:55:00,
2013-07-22 12:00:00,68.9,59.0,30.09,SE,135,0.0,4.0,70,0.00,,,0.00,Rainwise IP-100,2013-07-22 16:00:00,
2013-07-22 12:05:00,69.3,59.0,30.09,ESE,112,8.0,8.0,71,0.00,,,0.00,Rainwise IP-100,2013-07-22 16:05:00,
2013-07-22 12:10:00,69.8,59.0,30.08,ESE,112,5.0,5.0,70,0.00,,,0.00,Rainwise IP-100,2013-07-22 16:10:00,
2013-07-22 12:15:00,69.5,59.0,30.08,ESE,112,0.0,3.0,70,0.00,,,0.00,Rainwise IP-100,2013-07-22 16:15:00,
2013-07-22 12:20:00,68.9,58.0,30.07,SSE,157,8.0,8.0,69,0.00,,,0.00,Rainwise IP-100,2013-07-22 16:20:00,
2013-07-22 12:25:00,68.3,57.0,30.09,SSE,157,8.0,8.0,69,0.00,,,0.00,Rainwise IP-100,2013-07-22 16:25:00,
2013-07-22 12:30:00,68.0,57.0,30.09,SE,135,8.0,8.0,69,0.00,,,0.00,Rainwise IP-100,2013-07-22 16:30:00,
2013-07-22 12:35:00,68.1,57.0,30.11,SE,135,3.0,3.0,69,0.00,,,0.00,Rainwise IP-100,2013-07-22 16:35:00,
2013-07-22 12:40:00,68.0,57.0,30.10,SSW,202,4.0,4.0,69,0.00,,,0.00,Rainwise IP-100,2013-07-22 16:40:00,
2013-07-22 12:45:00,67.9,57.0,30.08,South,180,5.0,5.0,70,0.00,,,0.00,Rainwise IP-100,2013-07-22 16:45:00,
2013-07-22 12:50:00,68.0,58.0,30.09,SSE,157,8.0,8.0,71,0.00,,,0.00,Rainwise IP-100,2013-07-22 16:50:00,
2013-07-22 12:55:00,68.1,58.0,30.09,ESE,112,5.0,5.0,71,0.00,,,0.00,Rainwise IP-100,2013-07-22 16:55:00,
2013-07-22 13:00:00,68.2,58.0,30.08,SSE,157,6.0,6.0,71,0.00,,,0.00,Rainwise IP-100,2013-07-22 17:00:00,
2013-07-22 13:05:00,68.3,57.0,30.08,SSE,157,0.0,2.0,70,0.00,,,0.00,Rainwise IP-100,2013-07-22 17:05:00,
2013-07-22 13:10:00,68.2,57.0,30.09,SSE,157,6.0,6.0,70,0.00,,,0.00,Rainwise IP-100,2013-07-22 17:10:00,
2013-07-22 13:15:00,68.2,57.0,30.09,SSE,157,7.0,7.0,70,0.00,,,0.00,Rainwise IP-100,2013-07-22 17:15:00,
2013-07-22 13:20:00,68.3,57.0,30.10,SSE,157,0.0,4.0,69,0.00,,,0.00,Rainwise IP-100,2013-07-22 17:20:00,
2013-07-22 13:25:00,68.4,56.0,30.09,SSE,157,8.0,8.0,66,0.00,,,0.00,Rainwise IP-100,2013-07-22 17:25:00,
2013-07-22 13:30:00,68.6,56.0,30.08,SSE,157,5.0,5.0,64,0.00,,,0.00,Rainwise IP-100,2013-07-22 17:30:00,
2013-07-22 13:35:00,69.0,56.0,30.08,SSE,157,8.0,8.0,64,0.00,,,0.00,Rainwise IP-100,2013-07-22 17:35:00,
2013-07-22 13:40:00,69.4,56.0,30.09,ESE,112,5.0,0.0,62,0.00,,,0.00,Rainwise IP-100,2013-07-22 17:40:00,
2013-07-22 13:45:00,69.7,56.0,30.08,SSW,202,6.0,8.0,61,0.00,,,0.00,Rainwise IP-100,2013-07-22 17:45:00,
2013-07-22 13:50:00,69.7,56.0,30.06,SE,135,8.0,9.0,61,0.00,,,0.00,Rainwise IP-100,2013-07-22 17:50:00,
2013-07-22 13:55:00,68.9,55.0,30.06,SE,135,8.0,0.0,62,0.00,,,0.00,Rainwise IP-100,2013-07-22 17:55:00,
2013-07-22 14:00:00,68.0,55.0,30.08,SSE,157,5.0,9.0,64,0.00,,,0.00,Rainwise IP-100,2013-07-22 18:00:00,
2013-07-22 14:05:00,68.0,56.0,30.09,ESE,112,7.0,9.0,65,0.00,,,0.00,Rainwise IP-100,2013-07-22 18:05:00,
2013-07-22 14:10:00,68.6,56.0,30.10,SSE,157,7.0,8.0,64,0.00,,,0.00,Rainwise IP-100,2013-07-22 18:10:00,
2013-07-22 14:15:00,69.1,56.0,30.08,SE,135,6.0,9.0,63,0.00,,,0.00,Rainwise IP-100,2013-07-22 18:15:00,
2013-07-22 14:20:00,69.1,56.0,30.08,SSE,157,7.0,7.0,63,0.00,,,0.00,Rainwise IP-100,2013-07-22 18:20:00,
2013-07-22 14:25:00,69.3,56.0,30.06,SSE,157,8.0,8.0,62,0.00,,,0.00,Rainwise IP-100,2013-07-22 18:25:00,
2013-07-22 14:30:00,69.4,54.0,30.08,SE,135,8.0,0.0,60,0.00,,,0.00,Rainwise IP-100,2013-07-22 18:30:00,
2013-07-22 14:35:00,68.9,54.0,30.11,SE,135,4.0,4.0,61,0.00,,,0.00,Rainwise IP-100,2013-07-22 18:35:00,
2013-07-22 14:40:00,68.5,54.0,30.08,ESE,112,7.0,7.0,61,0.00,,,0.00,Rainwise IP-100,2013-07-22 18:40:00,
2013-07-22 14:45:00,68.7,54.0,30.09,SE,135,7.0,7.0,61,0.00,,,0.00,Rainwise IP-100,2013-07-22 18:45:00,
2013-07-22 14:50:00,68.6,54.0,30.09,SSW,202,7.0,0.0,61,0.00,,,0.00,Rainwise IP-100,2013-07-22 18:50:00,
2013-07-22 14:55:00,68.2,54.0,30.07,South,180,4.0,0.0,61,0.00,,,0.00,Rainwise IP-100,2013-07-22 18:55:00,
2013-07-22 15:00:00,68.3,53.0,30.06,ESE,112,5.0,0.0,60,0.00,,,0.00,Rainwise IP-100,2013-07-22 19:00:00,
2013-07-22 15:05:00,67.9,54.0,30.08,SE,135,7.0,7.0,62,0.00,,,0.00,Rainwise IP-100,2013-07-22 19:05:00,
2013-07-22 15:10:00,67.0,55.0,30.07,SSE,157,5.0,5.0,65,0.00,,,0.00,Rainwise IP-100,2013-07-22 19:10:00,
2013-07-22 15:15:00,67.1,54.0,30.08,SSE,157,3.0,0.0,64,0.00,,,0.00,Rainwise IP-100,2013-07-22 19:15:00,
2013-07-22 15:20:00,67.7,54.0,30.07,South,180,4.0,0.0,63,0.00,,,0.00,Rainwise IP-100,2013-07-22 19:20:00,
2013-07-22 15:25:00,68.2,54.0,30.09,SE,135,4.0,8.0,61,0.00,,,0.00,Rainwise IP-100,2013-07-22 19:25:00,
2013-07-22 15:30:00,68.3,54.0,30.10,SSW,202,5.0,8.0,61,0.00,,,0.00,Rainwise IP-100,2013-07-22 19:30:00,
2013-07-22 15:35:00,68.2,54.0,30.07,ESE,112,6.0,6.0,61,0.00,,,0.00,Rainwise IP-100,2013-07-22 19:35:00,
2013-07-22 15:40:00,68.1,54.0,30.09,SE,135,4.0,8.0,63,0.00,,,0.00,Rainwise IP-100,2013-07-22 19:40:00,
2013-07-22 15:45:00,67.5,56.0,30.08,SSE,157,7.0,8.0,66,0.00,,,0.00,Rainwise IP-100,2013-07-22 19:45:00,
2013-07-22 15:50:00,66.6,56.0,30.08,SSE,157,5.0,8.0,69,0.00,,,0.00,Rainwise IP-100,2013-07-22 19:50:00,
2013-07-22 15:55:00,66.3,56.0,30.10,SSE,157,6.0,7.0,70,0.00,,,0.00,Rainwise IP-100,2013-07-22 19:55:00,
2013-07-22 16:00:00,66.4,56.0,30.08,South,180,6.0,9.0,70,0.00,,,0.00,Rainwise IP-100,2013-07-22 20:00:00,
2013-07-22 16:05:00,66.6,56.0,30.04,SSE,157,4.0,7.0,69,0.00,,,0.00,Rainwise IP-100,2013-07-22 20:05:00,
2013-07-22 16:10:00,67.0,56.0,30.07,SSW,202,3.0,5.0,68,0.00,,,0.00,Rainwise IP-100,2013-07-22 20:10:00,
2013-07-22 16:15:00,67.7,56.0,30.06,South,180,5.0,8.0,66,0.00,,,0.00,Rainwise IP-100,2013-07-22 20:15:00,
2013-07-22 16:16:00,67.9,56.0,30.04,SSE,157,4.0,8.0,65,0.00,,,0.00,Rainwise IP-100,2013-07-22 20:16:00,
2013-07-22 16:21:00,68.4,55.0,30.04,SSW,202,4.0,6.0,63,0.00,,,0.00,Rainwise IP-100,2013-07-22 20:21:00,
2013-07-22 16:26:00,68.9,54.0,30.04,ESE,112,5.0,8.0,60,0.00,,,0.00,Rainwise IP-100,2013-07-22 20:26:00,
2013-07-22 16:31:00,68.9,54.0,30.06,ESE,112,8.0,0.0,59,0.00,,,0.00,Rainwise IP-100,2013-07-22 20:31:00,
2013-07-22 16:36:00,68.9,54.0,30.06,SSE,157,5.0,9.0,60,0.00,,,0.00,Rainwise IP-100,2013-07-22 20:36:00,
2013-07-22 16:41:00,68.8,54.0,30.01,ESE,112,7.0,9.0,60,0.00,,,0.00,Rainwise IP-100,2013-07-22 20:41:00,
2013-07-22 16:42:00,68.8,54.0,30.01,SE,135,6.0,9.0,60,0.00,,,0.00,Rainwise IP-100,2013-07-22 20:42:00,
2013-07-22 16:47:00,69.0,54.0,30.05,SE,135,7.0,9.0,59,0.00,,,0.00,Rainwise IP-100,2013-07-22 20:47:00,
2013-07-22 16:52:00,69.1,54.0,30.05,SSE,157,6.0,9.0,59,0.00,,,0.00,Rainwise IP-100,2013-07-22 20:52:00,
2013-07-22 16:57:00,68.8,54.0,30.06,South,180,4.0,9.0,60,0.00,,,0.00,Rainwise IP-100,2013-07-22 20:57:00,
2013-07-22 17:02:00,68.1,54.0,30.02,SSE,157,0.0,1.0,61,0.00,,,0.00,Rainwise IP-100,2013-07-22 21:02:00,
2013-07-22 17:07:00,66.9,54.0,30.06,SSE,157,6.0,6.0,64,0.00,,,0.00,Rainwise IP-100,2013-07-22 21:07:00,
2013-07-22 17:12:00,65.8,54.0,30.04,South,180,5.0,5.0,69,0.00,,,0.00,Rainwise IP-100,2013-07-22 21:12:00,
2013-07-22 17:17:00,64.9,56.0,30.05,SE,135,5.0,5.0,73,0.00,,,0.00,Rainwise IP-100,2013-07-22 21:17:00,
2013-07-22 17:22:00,64.4,56.0,30.04,SSE,157,4.0,9.0,75,0.00,,,0.00,Rainwise IP-100,2013-07-22 21:22:00,
2013-07-22 17:27:00,64.1,56.0,30.05,ESE,112,6.0,6.0,77,0.00,,,0.00,Rainwise IP-100,2013-07-22 21:27:00,
2013-07-22 17:32:00,63.6,57.0,30.03,South,180,6.0,6.0,79,0.00,,,0.00,Rainwise IP-100,2013-07-22 21:32:00,
2013-07-22 17:37:00,63.3,57.0,30.06,SSE,157,6.0,6.0,81,0.00,,,0.00,Rainwise IP-100,2013-07-22 21:37:00,
2013-07-22 17:42:00,63.2,57.0,30.05,South,180,9.0,9.0,82,0.00,,,0.00,Rainwise IP-100,2013-07-22 21:42:00,
2013-07-22 17:47:00,63.1,57.0,30.04,SSE,157,9.0,9.0,82,0.00,,,0.00,Rainwise IP-100,2013-07-22 21:47:00,
2013-07-22 17:52:00,63.1,57.0,30.02,SSE,157,8.0,8.0,82,0.00,,,0.00,Rainwise IP-100,2013-07-22 21:52:00,
2013-07-22 17:57:00,63.0,57.0,30.02,SE,135,4.0,4.0,82,0.00,,,0.00,Rainwise IP-100,2013-07-22 21:57:00,
2013-07-22 18:02:00,62.9,57.0,30.04,South,180,5.0,9.0,82,0.00,,,0.00,Rainwise IP-100,2013-07-22 22:02:00,
2013-07-22 18:07:00,63.0,57.0,30.03,SSE,157,6.0,6.0,82,0.00,,,0.00,Rainwise IP-100,2013-07-22 22:07:00,
2013-07-22 18:12:00,63.0,57.0,30.02,SSE,157,5.0,0.0,82,0.00,,,0.00,Rainwise IP-100,2013-07-22 22:12:00,
2013-07-22 18:17:00,63.2,57.0,30.06,SSW,202,8.0,8.0,81,0.00,,,0.00,Rainwise IP-100,2013-07-22 22:17:00,
2013-07-22 18:22:00,63.3,56.0,30.04,SSE,157,4.0,4.0,80,0.00,,,0.00,Rainwise IP-100,2013-07-22 22:22:00,
2013-07-22 18:27:00,63.4,57.0,30.03,SSE,157,8.0,0.0,79,0.00,,,0.00,Rainwise IP-100,2013-07-22 22:27:00,
2013-07-22 18:32:00,63.7,56.0,30.04,SSE,157,9.0,0.0,77,0.00,,,0.00,Rainwise IP-100,2013-07-22 22:32:00,
2013-07-22 18:37:00,64.0,56.0,30.02,South,180,6.0,0.0,76,0.00,,,0.00,Rainwise IP-100,2013-07-22 22:37:00,
2013-07-22 18:42:00,64.3,56.0,30.02,SSE,157,0.0,1.0,76,0.00,,,0.00,Rainwise IP-100,2013-07-22 22:42:00,
2013-07-22 18:47:00,64.4,56.0,30.05,SSW,202,0.0,4.0,75,0.00,,,0.00,Rainwise IP-100,2013-07-22 22:47:00,
2013-07-22 18:52:00,64.4,56.0,30.04,SSE,157,0.0,2.0,76,0.00,,,0.00,Rainwise IP-100,2013-07-22 22:52:00,
2013-07-22 18:57:00,64.3,56.0,30.04,SSE,157,6.0,6.0,76,0.00,,,0.00,Rainwise IP-100,2013-07-22 22:57:00,
2013-07-22 19:02:00,64.1,56.0,30.04,SE,135,7.0,0.0,77,0.00,,,0.00,Rainwise IP-100,2013-07-22 23:02:00,
2013-07-22 19:07:00,63.6,57.0,30.04,SSE,157,5.0,8.0,79,0.00,,,0.00,Rainwise IP-100,2013-07-22 23:07:00,
2013-07-22 19:12:00,63.4,57.0,30.04,ESE,112,5.0,8.0,80,0.00,,,0.00,Rainwise IP-100,2013-07-22 23:12:00,
2013-07-22 19:17:00,63.2,57.0,30.05,SE,135,9.0,0.0,81,0.00,,,0.00,Rainwise IP-100,2013-07-22 23:17:00,
2013-07-22 19:22:00,63.1,57.0,30.05,SE,135,6.0,0.0,82,0.00,,,0.00,Rainwise IP-100,2013-07-22 23:22:00,
2013-07-22 19:27:00,63.3,57.0,30.02,SE,135,8.0,8.0,82,0.00,,,0.00,Rainwise IP-100,2013-07-22 23:27:00,
2013-07-22 19:32:00,63.5,57.0,30.02,SE,135,4.0,8.0,81,0.00,,,0.00,Rainwise IP-100,2013-07-22 23:32:00,
2013-07-22 19:37:00,63.4,57.0,30.02,SE,135,5.0,7.0,81,0.00,,,0.00,Rainwise IP-100,2013-07-22 23:37:00,
2013-07-22 19:42:00,63.1,57.0,30.02,SSE,157,0.0,1.0,82,0.00,,,0.00,Rainwise IP-100,2013-07-22 23:42:00,
2013-07-22 19:47:00,63.2,57.0,30.03,SE,135,6.0,0.0,82,0.00,,,0.00,Rainwise IP-100,2013-07-22 23:47:00,
2013-07-22 19:52:00,63.3,57.0,30.00,SE,135,7.0,7.0,81,0.00,,,0.00,Rainwise IP-100,2013-07-22 23:52:00,
2013-07-22 19:57:00,62.9,57.0,30.02,SSE,157,5.0,0.0,81,0.00,,,0.00,Rainwise IP-100,2013-07-22 23:57:00,
2013-07-22 20:02:00,62.6,57.0,30.03,SE,135,0.0,1.0,82,0.00,,,0.00,Rainwise IP-100,2013-07-23 00:02:00,
2013-07-22 20:07:00,62.5,57.0,30.01,ESE,112,6.0,0.0,83,0.00,,,0.00,Rainwise IP-100,2013-07-23 00:07:00,
2013-07-22 20:12:00,62.6,57.0,30.02,SE,135,7.0,0.0,82,0.00,,,0.00,Rainwise IP-100,2013-07-23 00:12:00,
2013-07-22 20:17:00,62.5,57.0,30.04,WSW,247,0.0,8.0,82,0.00,,,0.00,Rainwise IP-100,2013-07-23 00:17:00,
2013-07-22 20:22:00,62.4,57.0,30.02,NNW,337,1.0,5.0,82,0.00,,,0.00,Rainwise IP-100,2013-07-23 00:22:00,
2013-07-22 20:27:00,62.5,57.0,30.01,NNE,22,4.0,5.0,82,0.00,,,0.00,Rainwise IP-100,2013-07-23 00:27:00,
2013-07-22 20:32:00,62.3,56.0,30.02,North,0,3.0,6.0,82,0.00,,,0.00,Rainwise IP-100,2013-07-23 00:32:00,
2013-07-22 20:37:00,61.5,57.0,30.02,East,90,4.0,4.0,85,0.00,,,0.00,Rainwise IP-100,2013-07-23 00:37:00,
2013-07-22 20:42:00,60.9,57.0,30.05,SE,135,2.0,5.0,87,0.00,,,0.00,Rainwise IP-100,2013-07-23 00:42:00,
2013-07-22 20:47:00,60.7,57.0,30.03,ESE,112,4.0,4.0,88,0.00,,,0.00,Rainwise IP-100,2013-07-23 00:47:00,
2013-07-22 20:52:00,60.3,56.0,30.02,WSW,247,0.0,5.0,89,0.00,,,0.00,Rainwise IP-100,2013-07-23 00:52:00,
2013-07-22 20:57:00,60.0,57.0,30.02,WSW,247,0.0,1.0,90,0.00,,,0.00,Rainwise IP-100,2013-07-23 00:57:00,
2013-07-22 21:00:00,59.9,57.0,30.02,WSW,247,0.0,2.0,90,0.00,,,0.00,Rainwise IP-100,2013-07-23 01:00:00,
2013-07-22 21:05:00,59.9,57.0,30.04,SE,135,2.0,5.0,91,0.00,,,0.00,Rainwise IP-100,2013-07-23 01:05:00,
2013-07-22 21:10:00,59.8,56.0,30.02,SSE,157,4.0,5.0,91,0.00,,,0.00,Rainwise IP-100,2013-07-23 01:10:00,
2013-07-22 21:15:00,59.8,56.0,30.01,SSW,202,2.0,6.0,91,0.00,,,0.00,Rainwise IP-100,2013-07-23 01:15:00,
2013-07-22 21:20:00,59.8,56.0,30.01,SSW,202,3.0,4.0,91,0.00,,,0.00,Rainwise IP-100,2013-07-23 01:20:00,
2013-07-22 21:25:00,59.6,57.0,30.04,SW,225,0.0,3.0,92,0.00,,,0.00,Rainwise IP-100,2013-07-23 01:25:00,
2013-07-22 21:30:00,59.5,57.0,30.03,SSE,157,0.0,4.0,92,0.00,,,0.00,Rainwise IP-100,2013-07-23 01:30:00,
2013-07-22 21:35:00,59.4,57.0,29.99,WNW,292,2.0,2.0,92,0.00,,,0.00,Rainwise IP-100,2013-07-23 01:35:00,
2013-07-22 21:40:00,59.3,56.0,30.04,NNE,22,0.0,3.0,92,0.00,,,0.00,Rainwise IP-100,2013-07-23 01:40:00,
2013-07-22 21:45:00,59.2,56.0,30.04,NNW,337,1.0,3.0,92,0.00,,,0.00,Rainwise IP-100,2013-07-23 01:45:00,
2013-07-22 21:50:00,59.1,57.0,30.03,WNW,292,0.0,2.0,93,0.00,,,0.00,Rainwise IP-100,2013-07-23 01:50:00,
2013-07-22 21:55:00,59.0,57.0,30.02,ENE,67,2.0,2.0,93,0.00,,,0.00,Rainwise IP-100,2013-07-23 01:55:00,
2013-07-22 22:00:00,59.1,57.0,30.04,East,90,1.0,3.0,93,0.00,,,0.00,Rainwise IP-100,2013-07-23 02:00:00,
2013-07-22 22:05:00,59.4,57.0,30.03,ESE,112,2.0,4.0,93,0.00,,,0.00,Rainwise IP-100,2013-07-23 02:05:00,
2013-07-22 22:10:00,59.4,57.0,30.02,SSE,157,2.0,2.0,93,0.00,,,0.00,Rainwise IP-100,2013-07-23 02:10:00,
2013-07-22 22:15:00,59.3,57.0,30.02,SSW,202,1.0,4.0,93,0.00,,,0.00,Rainwise IP-100,2013-07-23 02:15:00,
2013-07-22 22:20:00,59.1,57.0,30.02,SW,225,3.0,3.0,94,0.00,,,0.00,Rainwise IP-100,2013-07-23 02:20:00,
2013-07-22 22:25:00,59.0,57.0,30.04,SW,225,0.0,3.0,94,0.00,,,0.00,Rainwise IP-100,2013-07-23 02:25:00,
2013-07-22 22:30:00,59.0,57.0,30.01,SSW,202,0.0,3.0,94,0.00,,,0.00,Rainwise IP-100,2013-07-23 02:30:00,
2013-07-22 22:35:00,59.0,57.0,30.01,SSW,202,1.0,2.0,94,0.00,,,0.00,Rainwise IP-100,2013-07-23 02:35:00,
2013-07-22 22:40:00,58.9,57.0,29.98,SW,225,0.0,2.0,94,0.00,,,0.00,Rainwise IP-100,2013-07-23 02:40:00,
2013-07-22 22:45:00,58.8,57.0,30.02,NE,45,0.0,2.0,95,0.00,,,0.00,Rainwise IP-100,2013-07-23 02:45:00,
2013-07-22 22:50:00,58.8,57.0,30.03,ESE,112,2.0,4.0,95,0.00,,,0.00,Rainwise IP-100,2013-07-23 02:50:00,
2013-07-22 22:55:00,59.0,57.0,30.04,South,180,1.0,4.0,95,0.00,,,0.00,Rainwise IP-100,2013-07-23 02:55:00,
2013-07-22 23:00:00,59.0,57.0,30.03,South,180,2.0,4.0,95,0.00,,,0.00,Rainwise IP-100,2013-07-23 03:00:00,
2013-07-22 23:05:00,59.0,57.0,30.01,SE,135,4.0,4.0,95,0.00,,,0.00,Rainwise IP-100,2013-07-23 03:05:00,
2013-07-22 23:10:00,59.1,57.0,30.03,SSE,157,2.0,4.0,95,0.00,,,0.00,Rainwise IP-100,2013-07-23 03:10:00,
2013-07-22 23:15:00,59.2,57.0,30.04,SSE,157,0.0,3.0,95,0.00,,,0.00,Rainwise IP-100,2013-07-23 03:15:00,
2013-07-22 23:20:00,59.2,57.0,30.02,NW,315,2.0,2.0,95,0.00,,,0.00,Rainwise IP-100,2013-07-23 03:20:00,
2013-07-22 23:25:00,59.1,57.0,30.02,WSW,247,1.0,2.0,95,0.00,,,0.00,Rainwise IP-100,2013-07-23 03:25:00,
2013-07-22 23:30:00,59.1,57.0,30.02,NE,45,1.0,3.0,94,0.00,,,0.00,Rainwise IP-100,2013-07-23 03:30:00,
2013-07-22 23:35:00,59.2,57.0,30.00,NNE,22,0.0,2.0,94,0.00,,,0.00,Rainwise IP-100,2013-07-23 03:35:00,
2013-07-22 23:40:00,59.4,57.0,30.01,NNE,22,1.0,1.0,94,0.00,,,0.00,Rainwise IP-100,2013-07-23 03:40:00,
2013-07-22 23:45:00,59.6,57.0,30.02,NNW,337,2.0,2.0,94,0.00,,,0.00,Rainwise IP-100,2013-07-23 03:45:00,
2013-07-22 23:50:00,59.8,57.0,30.00,NNW,337,1.0,1.0,94,0.00,,,0.00,Rainwise IP-100,2013-07-23 03:50:00,
2013-07-22 23:55:00,59.9,58.0,29.98,ENE,67,1.0,2.0,94,0.00,,,0.00,Rainwise IP-100,2013-07-23 03:55:00,